This is the latest recevied weather packets stored in our database for station/object BM2MWA-13. If no packets are shown the sender has not sent any weather packets the latest 10 day(s).
| Time | Temp. | Humidity | Pressure | Rain* | Wind** | Luminosity | Snow |
|---|---|---|---|---|---|---|---|
| 1787740623 | 29.44° C | 74% | 1001.3 hPa | 0 mm | - | - | - |
| 1787740024 | 29.44° C | 73% | 1001.3 hPa | 0 mm | - | - | - |
| 1787739427 | 29.44° C | 72% | 1001.2 hPa | 0 mm | - | - | - |
| 1787738824 | 30° C | 72% | 1001.3 hPa | 0 mm | - | - | - |
| 1787738224 | 30° C | 70% | 1001.1 hPa | 0 mm | - | - | - |
| 1787737626 | 30° C | 69% | 1001 hPa | 0 mm | - | - | - |
| 1787737023 | 30° C | 69% | 1001 hPa | 0 mm | - | - | - |
| 1787736423 | 30° C | 70% | 1001 hPa | 0 mm | - | - | - |
| 1787735824 | 30° C | 69% | 1001 hPa | 0 mm | - | - | - |
| 1787735224 | 30° C | 72% | 1001 hPa | 0 mm | - | - | - |
| 1787734623 | 30° C | 71% | 1001 hPa | 0 mm | - | - | - |
| 1787734024 | 30° C | 72% | 1001 hPa | 0 mm | - | - | - |
| 1787733424 | 30° C | 72% | 1001 hPa | 0 mm | - | - | - |
| 1787732824 | 30° C | 73% | 1000.9 hPa | 0 mm | - | - | - |
| 1787732224 | 30° C | 71% | 1001 hPa | 0 mm | - | - | - |
| 1787731623 | 30.56° C | 70% | 1001 hPa | 0 mm | - | - | - |
| 1787731024 | 30.56° C | 69% | 1001.2 hPa | 0 mm | - | - | - |
| 1787730423 | 30.56° C | 70% | 1001.1 hPa | 0 mm | - | - | - |
| 1787729823 | 30° C | 71% | 1001 hPa | 0 mm | - | - | - |
| 1787729223 | 30.56° C | 70% | 1001 hPa | 0 mm | - | - | - |
| 1787728623 | 30.56° C | 68% | 1001 hPa | 0 mm | - | - | - |
| 1787728023 | 30.56° C | 71% | 1001 hPa | 0 mm | - | - | - |
| 1787727424 | 31.11° C | 68% | 1001.1 hPa | 0 mm | - | - | - |
| 1787726823 | 30.56° C | 68% | 1001.2 hPa | 0 mm | - | - | - |
| 1787726224 | 31.11° C | 67% | 1001.2 hPa | 0 mm | - | - | - |
* Rain latest hour (hover to see other rain measurements)
** Current wind speed in m/s (hover to see current wind gust speed)